Simultaneous Nadir Overpasses (SNOs) Predictions

Prediction of SNOs between METOP-A and TERRA Satellite Orbit:

Table of predicted SNOs for the next 14.0 days since TLE Epoch: 11/12/2016
Index Date (METOP-A) Time (METOP-A) Lat,Lon (METOP-A) SZA (METOP-A ) Date (TERRA) Time (TERRA) Lat,Lon (TERRA) SZA (TERRA ) Distance(km) Time Diff (sec)
1 11/12/2016 10:23:13 81.30, 71.75 102.31 11/12/2016 10:23:24 81.31, 71.58 102.29 2.85 11
2 11/12/2016 11:13:54 -81.30,-121.00 77.70 11/12/2016 11:12:51 -81.31,-120.81 77.71 3.10 63
3 11/15/2016 05:57:34 81.30, 138.09 103.01 11/15/2016 05:57:40 81.31, 137.98 103.00 1.88 6
4 11/15/2016 06:48:14 -81.31, -54.22 76.94 11/15/2016 06:47:07 -81.31, -54.39 76.99 2.85 67
5 11/18/2016 01:31:56 81.30,-155.60 103.67 11/18/2016 01:31:58 81.31,-155.51 103.68 1.86 2
6 11/18/2016 02:22:36 -81.31, 12.14 76.28 11/18/2016 02:21:25 -81.31, 12.16 76.31 0.61 71
7 11/20/2016 20:15:38 -81.30, 103.19 75.76 11/20/2016 20:16:52 -81.30, 103.08 75.74 1.86 74
8 11/20/2016 21:06:18 81.30, -89.32 104.27 11/20/2016 21:06:18 81.30, -89.25 104.28 1.19 0
9 11/20/2016 21:56:58 -81.31, 78.46 75.67 11/20/2016 21:55:45 -81.30, 78.43 75.71 0.51 73
10 11/23/2016 15:49:59 -81.30, 169.48 75.20 11/23/2016 15:51:12 -81.30, 169.46 75.17 0.41 73
11 11/23/2016 16:40:39 81.30, -23.07 104.82 11/23/2016 16:40:38 81.30, -22.88 104.84 3.25 1




NCC Satellite Simultaneous Nadir Overpasses (SNOs) Prediction Service
